Time,TemperatureF,DewpointF,PressureIn,WindDirection,WindDirectionDegrees,WindSpeedMPH,WindSpeedGustMPH,Humidity,HourlyPrecipIn,Conditions,Clouds,dailyrainin,SoftwareType,DateUTC
2013-01-27 00:09:00,26.2,24.0,30.42,ENE,78,0.0,0.0,90,0.00,,,0.06,weatherlink.com 1.10,2013-01-27 05:09:00,
2013-01-27 00:24:00,25.8,24.0,30.42,ENE,78,0.0,0.0,91,0.00,,,0.06,weatherlink.com 1.10,2013-01-27 05:24:00,
2013-01-27 00:39:00,25.3,23.0,30.42,ENE,78,0.0,0.0,92,0.00,,,0.06,weatherlink.com 1.10,2013-01-27 05:39:00,
2013-01-27 00:54:00,25.0,23.0,30.42,ENE,78,0.0,0.0,92,0.00,,,0.06,weatherlink.com 1.10,2013-01-27 05:54:00,
2013-01-27 01:10:00,24.9,23.0,30.43,ENE,78,0.0,0.0,93,0.00,,,0.06,weatherlink.com 1.10,2013-01-27 06:10:00,
2013-01-27 01:25:00,25.1,23.0,30.43,ENE,78,0.0,1.0,93,0.00,,,0.06,weatherlink.com 1.10,2013-01-27 06:25:00,
2013-01-27 01:40:00,25.3,24.0,30.44,ENE,78,0.0,0.0,93,0.00,,,0.06,weatherlink.com 1.10,2013-01-27 06:40:00,
2013-01-27 01:55:00,25.4,24.0,30.44,ENE,78,0.0,0.0,94,0.00,,,0.00,weatherlink.com 1.10,2013-01-27 06:55:00,
2013-01-27 02:25:00,25.7,24.0,30.45,ENE,78,0.0,0.0,94,0.00,,,0.00,weatherlink.com 1.10,2013-01-27 07:25:00,
2013-01-27 02:40:00,25.6,24.0,30.45,ENE,78,0.0,2.0,93,0.00,,,0.00,weatherlink.com 1.10,2013-01-27 07:40:00,
2013-01-27 02:55:00,25.4,24.0,30.45,ENE,78,0.0,1.0,93,0.00,,,0.00,weatherlink.com 1.10,2013-01-27 07:55:00,
2013-01-27 03:10:00,25.0,23.0,30.45,ENE,78,0.0,0.0,93,0.00,,,0.00,weatherlink.com 1.10,2013-01-27 08:10:00,
2013-01-27 03:25:00,24.7,23.0,30.46,ENE,78,0.0,0.0,93,0.00,,,0.00,weatherlink.com 1.10,2013-01-27 08:25:00,
2013-01-27 03:40:00,24.6,23.0,30.45,ENE,78,0.0,0.0,93,0.00,,,0.00,weatherlink.com 1.10,2013-01-27 08:40:00,
2013-01-27 03:55:00,24.3,23.0,30.44,ENE,78,0.0,0.0,93,0.00,,,0.00,weatherlink.com 1.10,2013-01-27 08:55:00,
2013-01-27 04:10:00,23.6,22.0,30.44,ENE,78,0.0,0.0,93,0.00,,,0.00,weatherlink.com 1.10,2013-01-27 09:10:00,
2013-01-27 04:25:00,23.1,21.0,30.45,ENE,78,0.0,0.0,93,0.00,,,0.00,weatherlink.com 1.10,2013-01-27 09:25:00,
2013-01-27 04:40:00,22.6,21.0,30.45,ENE,78,0.0,0.0,93,0.00,,,0.00,weatherlink.com 1.10,2013-01-27 09:40:00,
2013-01-27 04:55:00,22.3,21.0,30.45,ENE,78,0.0,0.0,93,0.00,,,0.00,weatherlink.com 1.10,2013-01-27 09:55:00,
2013-01-27 05:10:00,22.3,21.0,30.46,ENE,78,0.0,0.0,93,0.00,,,0.00,weatherlink.com 1.10,2013-01-27 10:10:00,
2013-01-27 05:25:00,22.0,20.0,30.46,ENE,78,0.0,1.0,93,0.00,,,0.00,weatherlink.com 1.10,2013-01-27 10:25:00,
2013-01-27 05:40:00,21.6,20.0,30.45,ENE,78,0.0,0.0,93,0.00,,,0.00,weatherlink.com 1.10,2013-01-27 10:40:00,
2013-01-27 05:55:00,21.3,19.0,30.46,ENE,78,0.0,0.0,92,0.00,,,0.00,weatherlink.com 1.10,2013-01-27 10:55:00,
2013-01-27 06:10:00,21.0,19.0,30.47,ENE,78,0.0,0.0,93,0.00,,,0.00,weatherlink.com 1.10,2013-01-27 11:10:00,
2013-01-27 06:25:00,20.8,19.0,30.47,ENE,78,0.0,0.0,93,0.00,,,0.00,weatherlink.com 1.10,2013-01-27 11:25:00,
2013-01-27 06:40:00,20.6,19.0,30.47,ENE,78,0.0,0.0,93,0.00,,,0.00,weatherlink.com 1.10,2013-01-27 11:40:00,
2013-01-27 06:55:00,20.4,19.0,30.48,ENE,78,0.0,0.0,93,0.00,,,0.00,weatherlink.com 1.10,2013-01-27 11:55:00,
2013-01-27 07:10:00,20.0,18.0,30.49,ENE,78,0.0,0.0,92,0.00,,,0.00,weatherlink.com 1.10,2013-01-27 12:10:00,
2013-01-27 07:25:00,19.9,18.0,30.50,ENE,78,0.0,0.0,93,0.00,,,0.00,weatherlink.com 1.10,2013-01-27 12:25:00,
2013-01-27 07:40:00,19.8,18.0,30.50,ENE,78,0.0,0.0,93,0.00,,,0.00,weatherlink.com 1.10,2013-01-27 12:40:00,
2013-01-27 07:55:00,19.9,18.0,30.51,ENE,78,0.0,0.0,93,0.00,,,0.00,weatherlink.com 1.10,2013-01-27 12:55:00,
2013-01-27 08:10:00,20.4,19.0,30.51,ENE,78,0.0,1.0,93,0.00,,,0.00,weatherlink.com 1.10,2013-01-27 13:10:00,
2013-01-27 08:25:00,21.3,20.0,30.52,ENE,78,0.0,1.0,93,0.00,,,0.00,weatherlink.com 1.10,2013-01-27 13:25:00,
2013-01-27 08:40:00,21.8,20.0,30.52,ESE,119,0.0,2.0,93,0.00,,,0.00,weatherlink.com 1.10,2013-01-27 13:40:00,
2013-01-27 08:55:00,22.6,21.0,30.53,East,79,0.0,3.0,94,0.00,,,0.00,weatherlink.com 1.10,2013-01-27 13:55:00,
2013-01-27 09:10:00,23.7,22.0,30.53,SSW,207,0.0,2.0,94,0.00,,,0.00,weatherlink.com 1.10,2013-01-27 14:10:00,
2013-01-27 09:25:00,25.1,23.0,30.54,SW,227,1.0,4.0,93,0.00,,,0.00,weatherlink.com 1.10,2013-01-27 14:25:00,
2013-01-27 09:40:00,26.0,24.0,30.55,SW,215,1.0,6.0,90,0.00,,,0.00,weatherlink.com 1.10,2013-01-27 14:40:00,
2013-01-27 09:55:00,26.9,24.0,30.54,SW,229,1.0,6.0,88,0.00,,,0.00,weatherlink.com 1.10,2013-01-27 14:55:00,
2013-01-27 10:11:00,27.7,24.0,30.55,West,262,4.0,6.0,87,0.00,,,0.00,weatherlink.com 1.10,2013-01-27 15:11:00,
2013-01-27 10:26:00,28.3,24.0,30.55,SSW,204,5.0,8.0,85,0.00,,,0.00,weatherlink.com 1.10,2013-01-27 15:26:00,
2013-01-27 10:41:00,29.0,25.0,30.57,SSW,210,1.0,5.0,85,0.00,,,0.00,weatherlink.com 1.10,2013-01-27 15:41:00,
2013-01-27 10:56:00,29.3,25.0,30.56,NNE,22,2.0,5.0,84,0.00,,,0.00,weatherlink.com 1.10,2013-01-27 15:56:00,
2013-01-27 11:11:00,30.0,25.0,30.56,SSW,209,0.0,4.0,83,0.00,,,0.00,weatherlink.com 1.10,2013-01-27 16:11:00,
2013-01-27 11:26:00,31.1,26.0,30.56,ENE,73,1.0,3.0,81,0.00,,,0.00,weatherlink.com 1.10,2013-01-27 16:26:00,
2013-01-27 11:41:00,31.9,26.0,30.55,ENE,77,0.0,3.0,78,0.00,,,0.00,weatherlink.com 1.10,2013-01-27 16:41:00,
2013-01-27 11:56:00,32.1,26.0,30.54,ENE,59,2.0,4.0,77,0.00,,,0.00,weatherlink.com 1.10,2013-01-27 16:56:00,
2013-01-27 12:11:00,32.8,26.0,30.55,NE,55,0.0,4.0,77,0.00,,,0.00,weatherlink.com 1.10,2013-01-27 17:11:00,
2013-01-27 12:26:00,34.2,27.0,30.54,SSW,203,0.0,3.0,75,0.00,,,0.00,weatherlink.com 1.10,2013-01-27 17:26:00,
2013-01-27 12:41:00,33.2,25.0,30.53,WSW,246,3.0,8.0,73,0.00,,,0.00,weatherlink.com 1.10,2013-01-27 17:41:00,
2013-01-27 12:56:00,33.3,26.0,30.54,NE,54,3.0,3.0,75,0.00,,,0.00,weatherlink.com 1.10,2013-01-27 17:56:00,
2013-01-27 13:11:00,34.0,27.0,30.52,West,261,0.0,6.0,74,0.00,,,0.00,weatherlink.com 1.10,2013-01-27 18:11:00,
2013-01-27 13:26:00,33.8,26.0,30.51,SW,220,2.0,6.0,74,0.01,,,0.01,weatherlink.com 1.10,2013-01-27 18:26:00,
2013-01-27 13:41:00,33.5,26.0,30.50,SW,229,1.0,9.0,73,0.01,,,0.01,weatherlink.com 1.10,2013-01-27 18:41:00,
2013-01-27 13:56:00,34.2,26.0,30.51,SW,215,3.0,6.0,73,0.01,,,0.01,weatherlink.com 1.10,2013-01-27 18:56:00,
2013-01-27 14:11:00,34.5,27.0,30.50,SW,223,3.0,7.0,73,0.02,,,0.02,weatherlink.com 1.10,2013-01-27 19:11:00,
2013-01-27 14:26:00,34.7,26.0,30.49,WSW,237,3.0,9.0,71,0.01,,,0.02,weatherlink.com 1.10,2013-01-27 19:26:00,
2013-01-27 14:41:00,35.3,26.0,30.50,SW,219,2.0,5.0,70,0.01,,,0.02,weatherlink.com 1.10,2013-01-27 19:41:00,
2013-01-27 14:56:00,35.1,26.0,30.50,WSW,237,4.0,7.0,70,0.02,,,0.03,weatherlink.com 1.10,2013-01-27 19:56:00,
2013-01-27 15:11:00,34.9,26.0,30.50,SSW,210,2.0,8.0,71,0.02,,,0.04,weatherlink.com 1.10,2013-01-27 20:11:00,
2013-01-27 15:26:00,34.8,26.0,30.50,SSW,212,2.0,6.0,70,0.02,,,0.04,weatherlink.com 1.10,2013-01-27 20:26:00,
2013-01-27 15:41:00,34.7,26.0,30.51,SW,225,0.0,6.0,71,0.02,,,0.04,weatherlink.com 1.10,2013-01-27 20:41:00,
2013-01-27 15:56:00,34.4,26.0,30.51,West,261,0.0,5.0,72,0.02,,,0.05,weatherlink.com 1.10,2013-01-27 20:56:00,
2013-01-27 16:11:00,34.2,26.0,30.51,SW,233,1.0,4.0,73,0.01,,,0.05,weatherlink.com 1.10,2013-01-27 21:11:00,
2013-01-27 16:26:00,34.0,26.0,30.51,SW,234,0.0,4.0,73,0.02,,,0.06,weatherlink.com 1.10,2013-01-27 21:26:00,
2013-01-27 16:41:00,34.0,26.0,30.51,WSW,250,1.0,4.0,73,0.02,,,0.06,weatherlink.com 1.10,2013-01-27 21:41:00,
2013-01-27 16:56:00,33.7,27.0,30.51,WSW,248,2.0,4.0,75,0.02,,,0.07,weatherlink.com 1.10,2013-01-27 21:56:00,
2013-01-27 17:11:00,33.6,27.0,30.51,WNW,284,2.0,2.0,76,0.02,,,0.07,weatherlink.com 1.10,2013-01-27 22:11:00,
2013-01-27 17:26:00,33.5,26.0,30.52,West,270,3.0,3.0,75,0.02,,,0.08,weatherlink.com 1.10,2013-01-27 22:26:00,
2013-01-27 17:41:00,33.1,26.0,30.53,SW,230,2.0,4.0,75,0.02,,,0.08,weatherlink.com 1.10,2013-01-27 22:41:00,
2013-01-27 17:56:00,32.8,26.0,30.52,SW,236,1.0,3.0,77,0.01,,,0.08,weatherlink.com 1.10,2013-01-27 22:56:00,
2013-01-27 18:11:00,32.5,26.0,30.52,WSW,252,0.0,2.0,77,0.02,,,0.09,weatherlink.com 1.10,2013-01-27 23:11:00,
2013-01-27 18:26:00,32.3,26.0,30.52,WSW,252,0.0,3.0,78,0.01,,,0.09,weatherlink.com 1.10,2013-01-27 23:26:00,
2013-01-27 18:41:00,32.2,26.0,30.52,WSW,252,2.0,2.0,78,0.02,,,0.10,weatherlink.com 1.10,2013-01-27 23:41:00,
2013-01-27 18:56:00,32.0,26.0,30.52,WSW,240,3.0,5.0,78,0.02,,,0.10,weatherlink.com 1.10,2013-01-27 23:56:00,
2013-01-27 19:11:00,32.0,26.0,30.52,West,262,2.0,4.0,78,0.01,,,0.10,weatherlink.com 1.10,2013-01-28 00:11:00,
2013-01-27 19:26:00,32.0,26.0,30.52,WSW,240,0.0,3.0,79,0.01,,,0.10,weatherlink.com 1.10,2013-01-28 00:26:00,
2013-01-27 19:41:00,32.0,26.0,30.52,WSW,240,0.0,1.0,79,0.01,,,0.11,weatherlink.com 1.10,2013-01-28 00:41:00,
2013-01-27 19:56:00,32.0,26.0,30.52,NW,306,1.0,3.0,79,0.01,,,0.11,weatherlink.com 1.10,2013-01-28 00:56:00,
2013-01-27 20:11:00,32.0,26.0,30.52,WSW,243,4.0,8.0,77,0.01,,,0.11,weatherlink.com 1.10,2013-01-28 01:11:00,
2013-01-27 20:26:00,31.9,26.0,30.52,WSW,240,4.0,4.0,78,0.01,,,0.11,weatherlink.com 1.10,2013-01-28 01:26:00,
2013-01-27 20:41:00,31.9,26.0,30.52,West,264,5.0,8.0,78,0.00,,,0.11,weatherlink.com 1.10,2013-01-28 01:41:00,
2013-01-27 20:56:00,32.0,26.0,30.52,WSW,246,0.0,5.0,79,0.00,,,0.11,weatherlink.com 1.10,2013-01-28 01:56:00,
2013-01-27 21:11:00,32.1,27.0,30.52,WSW,246,2.0,4.0,80,0.00,,,0.11,weatherlink.com 1.10,2013-01-28 02:11:00,
2013-01-27 21:26:00,32.2,26.0,30.51,WSW,238,0.0,1.0,78,0.00,,,0.11,weatherlink.com 1.10,2013-01-28 02:26:00,
2013-01-27 21:41:00,32.3,26.0,30.51,WSW,238,0.0,2.0,79,0.00,,,0.11,weatherlink.com 1.10,2013-01-28 02:41:00,
2013-01-27 21:56:00,32.5,27.0,30.50,West,269,2.0,6.0,80,0.00,,,0.11,weatherlink.com 1.10,2013-01-28 02:56:00,
2013-01-27 22:11:00,32.5,28.0,30.50,West,268,0.0,4.0,82,0.00,,,0.11,weatherlink.com 1.10,2013-01-28 03:11:00,
2013-01-27 22:26:00,32.3,27.0,30.49,West,267,0.0,2.0,82,0.00,,,0.11,weatherlink.com 1.10,2013-01-28 03:26:00,
2013-01-27 22:41:00,32.1,28.0,30.49,West,267,0.0,2.0,86,0.00,,,0.11,weatherlink.com 1.10,2013-01-28 03:41:00,
2013-01-27 22:56:00,31.9,29.0,30.49,West,267,1.0,2.0,88,0.00,,,0.11,weatherlink.com 1.10,2013-01-28 03:56:00,
2013-01-27 23:11:00,31.8,29.0,30.48,West,267,0.0,2.0,89,0.00,,,0.11,weatherlink.com 1.10,2013-01-28 04:11:00,
2013-01-27 23:26:00,31.7,29.0,30.48,West,267,0.0,0.0,90,0.00,,,0.11,weatherlink.com 1.10,2013-01-28 04:26:00,
2013-01-27 23:41:00,31.7,29.0,30.47,West,267,0.0,0.0,91,0.00,,,0.11,weatherlink.com 1.10,2013-01-28 04:41:00,
2013-01-27 23:56:00,31.8,30.0,30.47,West,267,0.0,0.0,91,0.00,,,0.11,weatherlink.com 1.10,2013-01-28 04:56:00,